Find Starlink 32159

NORAD ID: 60293 Int'l Des: 2024-132 Owner: SPXS Country: US Constellation: starlink operational
LEOCIRCULAR

Current View

Loading 3D Globe...

About Starlink 32159

Starlink 32159 (NORAD 60293) is a starlink constellation satellite (v2 mini) launched Jul 28, 2024 by SPXS of US. It operates in LEO, CIRCULAR orbit with a mass of 730.00 kg.

About Starlink 32159

Description loading...

Upcoming Passes

Passes for default location (London). Set your location on the main map for personalized predictions.

Altitude History

Loading altitude history...

Two-Line Element Set

1 60293U 24132R 26175.53877570 -.00006838 00000-0 -21880-3 0 9994
2 60293 53.1557 275.8278 0001502 103.2422 256.8746 15.30220974107929
Epoch: Jun 24, 2026 • Age: 27 hours

Current Status

Altitude 476.0 km
Velocity 7.63 km/s
Sub-Earth Point 2.50°N, 124.86°E
Launch Date Jul 28, 2024
Age 1.9 years
Type internet

Technical Details

Classification Payload
Mass 730.00 kg
Dry Mass 700.00 kg
Total Mass 730.00 kg
Length 0.30 m
Diameter 4.10 m
Span 29.00 m
Shape Box + pan
Manufacturer SPXS
Bus Type Starlink V2M
Phase Status In Orbit
Owner/State SPXS/US

Most Searched